Total_Precipitation_Accumulation
0.21 0.21 0.22 0.20 0.19 0.18 0.18 0.22 0.27 0.18 0.06 0.03 0.05 0.06 0.08 0.12 0.16 0.16 0.16 0.19 0.24 0.29 0.30 0.30 0.33 0.41 0.68 1.29 2.16 2.70 2.39 1.59 0.86 0.51 0.43 0.43 0.41 0.37
0.27 0.28 0.29 0.28 0.26 0.25 0.24 0.22 0.23 0.24 0.14 0.04 0.05 0.07 0.09 0.11 0.16 0.17 0.18 0.19 0.20 0.23 0.27 0.27 0.30 0.36 0.48 0.74 1.27 2.10 2.53 2.27 1.54 0.91 0.65 0.59 0.49 0.40
0.29 0.33 0.34 0.33 0.32 0.29 0.29 0.27 0.24 0.25 0.21 0.06 0.03 0.07 0.12 0.15 0.17 0.17 0.18 0.17 0.16 0.18 0.23 0.26 0.28 0.33 0.43 0.58 0.80 1.32 2.07 2.39 2.15 1.54 1.09 0.80 0.58 0.40
0.43 0.42 0.42 0.43 0.44 0.41 0.40 0.35 0.29 0.26 0.25 0.15 0.06 0.06 0.12 0.19 0.25 0.24 0.21 0.17 0.14 0.15 0.18 0.22 0.26 0.29 0.37 0.47 0.60 0.85 1.36 1.97 2.21 1.95 1.47 1.08 0.74 0.50
0.69 0.68 0.65 0.62 0.62 0.60 0.57 0.48 0.37 0.29 0.25 0.21 0.12 0.08 0.12 0.22 0.31 0.33 0.28 0.21 0.15 0.16 0.18 0.20 0.23 0.25 0.29 0.36 0.46 0.60 0.83 1.18 1.64 1.93 1.86 1.45 1.04 0.74
0.78 0.81 0.87 0.89 0.88 0.82 0.77 0.62 0.46 0.34 0.27 0.24 0.19 0.14 0.13 0.21 0.37 0.42 0.38 0.30 0.20 0.16 0.18 0.19 0.22 0.24 0.24 0.24 0.27 0.39 0.62 0.95 1.26 1.64 1.90 1.76 1.33 1.04
0.52 0.58 0.69 0.84 0.93 0.95 0.94 0.78 0.59 0.47 0.37 0.31 0.25 0.21 0.18 0.24 0.38 0.46 0.50 0.47 0.39 0.29 0.22 0.17 0.18 0.18 0.19 0.22 0.27 0.35 0.49 0.67 0.89 1.17 1.52 1.76 1.58 1.27
0.31 0.34 0.40 0.55 0.64 0.71 0.80 0.80 0.80 0.75 0.63 0.49 0.39 0.32 0.28 0.30 0.37 0.51 0.54 0.56 0.55 0.45 0.37 0.30 0.24 0.21 0.20 0.19 0.22 0.27 0.37 0.50 0.67 0.85 1.07 1.35 1.52 1.40
0.16 0.17 0.19 0.29 0.40 0.43 0.47 0.53 0.64 0.77 0.84 0.76 0.68 0.57 0.43 0.37 0.38 0.45 0.53 0.58 0.60 0.59 0.55 0.53 0.46 0.35 0.28 0.27 0.30 0.27 0.29 0.36 0.48 0.61 0.76 0.97 1.20 1.35
0.12 0.11 0.09 0.15 0.30 0.29 0.26 0.34 0.45 0.61 0.81 0.88 0.91 0.81 0.60 0.44 0.40 0.47 0.57 0.60 0.65 0.75 0.75 0.71 0.63 0.49 0.44 0.40 0.38 0.30 0.25 0.27 0.35 0.45 0.56 0.71 0.89 1.09
0.10 0.12 0.09 0.08 0.19 0.14 0.12 0.20 0.27 0.41 0.54 0.68 0.73 0.69 0.60 0.53 0.50 0.50 0.59 0.67 0.80 0.92 0.92 0.88 0.83 0.62 0.57 0.58 0.53 0.40 0.28 0.25 0.28 0.35 0.43 0.52 0.65 0.85
0.06 0.08 0.14 0.13 0.12 0.09 0.07 0.11 0.18 0.24 0.27 0.33 0.37 0.42 0.44 0.44 0.51 0.59 0.68 0.72 0.83 1.01 1.03 0.93 0.98 0.80 0.75 0.73 0.58 0.41 0.30 0.30 0.31 0.33 0.36 0.39 0.47 0.59
0.05 0.07 0.11 0.11 0.07 0.05 0.04 0.07 0.14 0.11 0.10 0.17 0.23 0.30 0.38 0.43 0.49 0.58 0.67 0.73 0.80 0.93 0.98 0.89 0.99 0.85 0.70 0.75 0.66 0.50 0.32 0.28 0.30 0.37 0.40 0.41 0.40 0.40
0.06 0.05 0.06 0.05 0.02 0.02 0.02 0.03 0.03 0.02 0.03 0.07 0.12 0.18 0.29 0.41 0.51 0.58 0.64 0.70 0.78 0.86 0.84 0.77 0.85 0.78 0.56 0.49 0.57 0.58 0.42 0.31 0.27 0.30 0.36 0.49 0.49 0.43
0.17 0.12 0.02 0.00 0.00 0.00 0.00 0.01 0.00 0.01 0.02 0.03 0.08 0.14 0.23 0.34 0.40 0.46 0.52 0.56 0.62 0.72 0.77 0.74 0.76 0.78 0.59 0.41 0.37 0.43 0.45 0.44 0.33 0.28 0.30 0.34 0.35 0.32
0.13 0.09 0.02 0.00 0.00 0.00 0.00 0.00 0.00 0.01 0.01 0.03 0.05 0.09 0.13 0.20 0.28 0.37 0.45 0.48 0.51 0.63 0.79 0.84 0.84 0.84 0.75 0.53 0.37 0.34 0.31 0.40 0.39 0.26 0.26 0.30 0.29 0.22
0.08 0.02 0.00 0.00 0.00 0.00 0.00 0.00 0.00 0.00 0.00 0.01 0.02 0.05 0.09 0.14 0.22 0.30 0.40 0.45 0.49 0.58 0.77 0.95 0.95 0.92 0.90 0.77 0.56 0.41 0.27 0.23 0.28 0.24 0.19 0.25 0.32 0.28
0.05 0.01 0.00 0.00 0.00 0.00 0.00 0.00 0.00 0.00 0.00 0.01 0.02 0.04 0.07 0.12 0.18 0.25 0.34 0.42 0.48 0.53 0.64 0.83 0.90 0.88 0.97 1.06 0.86 0.51 0.29 0.19 0.22 0.22 0.17 0.18 0.29 0.35
0.02 0.01 0.00 0.00 0.00 0.00 0.00 0.00 0.00 0.00 0.00 0.00 0.01 0.03 0.05 0.09 0.13 0.20 0.27 0.36 0.45 0.51 0.58 0.66 0.77 0.79 0.84 1.04 1.19 0.80 0.40 0.22 0.19 0.25 0.23 0.16 0.19 0.27
0.01 0.01 0.01 0.01 0.00 0.00 0.00 0.00 0.00 0.00 0.00 0.00 0.01 0.02 0.03 0.06 0.10 0.15 0.22 0.31 0.39 0.48 0.54 0.59 0.73 0.79 0.69 0.64 0.78 0.92 0.71 0.34 0.19 0.23 0.28 0.25 0.21 0.22
0.02 0.02 0.02 0.02 0.01 0.01 0.00 0.00 0.00 0.00 0.00 0.00 0.00 0.01 0.02 0.04 0.07 0.11 0.16 0.23 0.30 0.39 0.45 0.53 0.67 0.72 0.67 0.51 0.49 0.69 0.80 0.61 0.29 0.18 0.21 0.23 0.23 0.21
0.03 0.03 0.02 0.02 0.02 0.01 0.01 0.00 0.00 0.00 0.00 0.00 0.00 0.01 0.01 0.03 0.05 0.07 0.11 0.17 0.24 0.31 0.38 0.46 0.54 0.67 0.75 0.67 0.60 0.62 0.71 0.75 0.62 0.39 0.23 0.15 0.12 0.13
0.06 0.05 0.03 0.03 0.02 0.01 0.01 0.01 0.00 0.00 0.00 0.00 0.00 0.00 0.01 0.02 0.03 0.05 0.07 0.12 0.18 0.23 0.30 0.39 0.47 0.58 0.73 0.74 0.66 0.58 0.56 0.58 0.55 0.47 0.45 0.32 0.17 0.09